User: anonymous   Login
Location: Frankfurt am Main
(50.1109°N, 8.6821°E)
Time: 03:37:29
(UTC+01:00)
Language:

Tiangong - Orbit

View from above orbital plane
View from above orbital plane
View from above satellite
View from above satellite

Ground track
Ground track

The orbit data is extracted from the following two-line orbital elements,

1 48274U 21035A   21331.48878690  .00011161  00000-0  12945-3 0  9990
2 48274  41.4708   7.5520 0002934  72.2369  67.1468 15.61683797 33233
Epoch (UTC): 27 November 2021 11:43:51
Eccentricity: 0.0002934
inclination: 41.4708°
perigee height: 381 km
apogee height: 385 km
right ascension of ascending node: 7.5520°
argument of perigee: 72.2369°
revolutions per day: 15.61683797
mean anomaly at epoch: 67.1468°
orbit number at epoch: 3323

The dashed part of the orbit path shows where the satellite is in the earth's shadow,  

DLR